CT1AKV-10 Weather Reports


time (UTC)temp
C
wind
direction
speed
KPH
gust
KPH
rain 1hr
cm
rain 24hr
cm
rain mn
cm
humidity
%
barometer
mb
20180625164503 26 0 0.0 1.6 0.00 0.00 0.00 10 1014.1
20180625163004 26 0 0.0 0.0 0.00 0.00 0.00 10 1014.1
20180625161504 27 0 0.0 0.0 0.00 0.00 0.00 10 1014.0
20180625153004 28 0 0.0 0.0 0.00 0.00 0.00 10 1014.1
20180625151504 28 0 0.0 0.0 0.00 0.00 0.00 10 1014.2
20180625150003 30 275 0.0 6.4 0.00 0.00 0.00 10 1014.1
20180625144504 30 0 0.0 0.0 0.00 0.00 0.00 10 1014.1
20180625143004 28 0 0.0 0.0 0.00 0.00 0.00 10 1014.1
20180625141503 28 0 0.0 0.0 0.00 0.00 0.00 10 1014.2
20180625140003 28 0 0.0 0.0 0.00 0.00 0.00 10 1014.2
20180625134504 28 0 0.0 0.0 0.00 0.00 0.00 10 1014.4
20180625133003 26 0 0.0 0.0 0.00 0.00 0.00 10 1014.4
20180625131503 27 0 0.0 0.0 0.00 0.00 0.00 10 1014.6
20180625130004 26 0 0.0 0.0 0.00 0.00 0.00 10 1014.8
20180625124503 25 0 0.0 0.0 0.00 0.00 0.00 10 1014.8
20180625123004 25 0 0.0 0.0 0.00 0.00 0.00 10 1014.8
20180625121504 25 0 0.0 0.0 0.00 0.00 0.00 10 1014.7
20180625114503 24 0 0.0 0.0 0.00 0.00 0.00 10 1014.7
20180625113004 24 0 0.0 0.0 0.00 0.00 0.00 10 1014.7
20180625111504 24 0 0.0 0.0 0.00 0.00 0.00 10 1014.6
20180625110003 23 314 0.0 3.2 0.00 0.00 0.00 10 1014.7
20180625104503 23 0 0.0 0.0 0.00 0.00 0.00 10 1014.7
20180625103004 22 0 0.0 0.0 0.00 0.00 0.00 10 1014.7
20180625101504 22 0 0.0 0.0 0.00 0.00 0.00 10 1014.6
20180625100004 21 0 0.0 0.0 0.00 0.00 0.00 10 1014.5
20180625093003 21 0 0.0 0.0 0.00 0.00 0.00 16 1014.3
20180625091503 21 0 0.0 0.0 0.00 0.00 0.00 18 1014.2
20180625090004 21 0 0.0 0.0 0.00 0.00 0.00 38 1014.1
20180625084504 20 0 0.0 0.0 0.00 0.00 0.00 42 1014.0
20180625080004 19 0 0.0 0.0 0.00 0.00 0.00 82 1013.9
20180625074503 19 0 0.0 0.0 0.00 0.00 0.00 99 1013.7
20180625073004 18 0 0.0 0.0 0.00 0.00 0.00 99 1013.6
20180625071504 18 0 0.0 0.0 0.00 0.00 0.00 99 1013.5
20180625064503 18 0 0.0 0.0 0.00 0.00 0.00 99 1013.4
20180625063004 18 0 0.0 0.0 0.00 0.00 0.00 99 1013.3
20180625061503 17 0 0.0 0.0 0.00 0.00 0.00 99 1013.1
20180625060003 17 0 0.0 3.2 0.00 0.00 0.00 99 1013.1
20180625054504 17 0 0.0 0.0 0.00 0.00 0.00 99 1012.8
20180625053003 17 0 0.0 0.0 0.00 0.00 0.00 99 1012.8
20180625050004 17 0 0.0 0.0 0.00 0.00 0.00 99 1012.7
20180625044504 17 0 0.0 0.0 0.00 0.00 0.00 99 1012.5
20180625043003 17 0 0.0 0.0 0.00 0.00 0.00 99 1012.3
20180625041504 16 0 0.0 0.0 0.00 0.00 0.00 99 1012.3
20180625040004 16 0 0.0 0.0 0.00 0.00 0.00 99 1012.1
20180625034503 16 0 0.0 0.0 0.00 0.00 0.00 99 1012.0
20180625033003 16 0 0.0 0.0 0.00 0.00 0.00 99 1012.2
20180625031504 16 0 0.0 0.0 0.00 0.00 0.00 99 1011.9
20180625030004 17 0 0.0 0.0 0.00 0.00 0.00 99 1012.1
20180625024503 17 0 0.0 0.0 0.00 0.00 0.00 99 1012.1
20180625021504 17 0 0.0 0.0 0.00 5.36 0.00 99 1011.9
20180625020003 17 0 0.0 0.0 0.00 0.00 0.00 99 1011.7
20180625014503 17 0 0.0 0.0 0.00 0.00 0.00 99 1011.7
20180625013004 17 0 0.0 0.0 0.00 0.00 0.00 99 1011.9
20180625010004 17 0 0.0 0.0 0.00 0.00 0.00 99 1011.9
20180625004504 17 0 0.0 0.0 0.00 0.00 0.00 99 1012.0
20180625003003 17 0 0.0 0.0 0.00 0.00 0.00 99 1011.9
20180625001504 17 0 0.0 0.0 0.00 0.00 0.00 99 1012.0
20180625000004 17 0 0.0 0.0 0.00 0.00 0.00 99 1012.0
20180624234503 17 0 0.0 0.0 0.00 0.00 0.00 99 1012.2
20180624231504 17 0 0.0 0.0 0.00 0.00 0.00 99 1012.5
20180624230005 17 0 0.0 0.0 0.00 0.00 0.00 99 1012.5
20180624224504 17 0 0.0 0.0 0.00 0.00 0.00 97 1012.5
20180624223003 17 0 0.0 0.0 0.00 0.00 0.00 87 1012.5
20180624221503 17 0 0.0 1.6 0.00 0.00 0.00 83 1012.5
20180624220004 17 0 0.0 1.6 0.00 0.00 0.00 68 1012.4
20180624213003 18 0 0.0 0.0 0.00 0.00 0.00 57 1012.4
20180624211504 18 0 0.0 0.0 0.00 0.00 0.00 55 1012.0
20180624210003 18 0 0.0 0.0 0.00 0.00 0.00 48 1012.0
20180624204504 18 0 0.0 1.6 0.00 0.00 0.00 41 1011.8
20180624203004 18 0 0.0 0.0 0.00 0.00 0.00 32 1011.7
20180624201503 18 0 0.0 0.0 0.00 0.00 0.00 13 1011.6
20180624200004 19 0 0.0 0.0 0.00 0.00 0.00 10 1011.6